Weather in Lyatoshinka

Russia / Volgograd Oblast     50°36′51″N   46°33′23″E
temp.,
°C
wind,
m/s
gust,
m/s
humid.,
%
clouds,
%
prec.,
mm/h
press.,
hPa
HPBL,
m
28 february, sun
sun2800:00−7nnw8138296 0.1 1006590
03:00−11nnw7138148 0.1 1009558
06:00−12nw511850 0.0 1011515
09:00−12nw69820 0.0 1013499
12:00−10nw57810 0.0 1014528
15:00−9nw58810 0.0 1015596
18:00−10nw348913 0.0 101693
21:00−11nw34916 0.0 101897
1 march, mon
mon100:00−12nnw35912 0.0 1019126
03:00−14nnw36901 0.0 1021149
06:00−14nnw359021 0.0 1022159
09:00−13nnw358532 0.0 1025245
12:00−11nnw34790 0.0 1025338
15:00−10nw34800 0.0 1026378
18:00−11w12860 0.0 102621
21:00−11wsw23880 0.0 102628
2 march, tue
tue200:00−11wsw33890 0.0 102541
03:00−10sw479316 0.0 1023120
06:00−8sw61192100 0.0 1019254
09:00−4sw81488100 0.0 1016501
12:00−2sw101595100 1.3 1013813
15:000wsw91597100 3.8 1010848
18:000wsw81497100 1.6 1007647
21:000w61293100 1.8 1007534
3 march, wed
wed300:00−2wnw6129798 0.3 1006454
03:00−4wnw5119082 0.4 1007235
06:00−4wnw5119457 0.0 1008335
09:00−2wnw6108679 0.1 1009732
12:00−1nw698590 0.0 1010853
15:00−1nw698393 0.1 1011988
18:00−3nw51287100 0.1 1012439
21:00−6nw6138772 0.1 1014433
4 march, thu
thu400:00−7nw6128924 0.0 1015348
03:00−8nw6128912 0.0 1017285
06:00−10nw49910 0.0 1019171
09:00−7wnw49890 0.0 1021291
12:00−3w48840 0.0 1021561
15:00−2wsw598617 0.0 1020626
18:00−4sw5108823 0.0 1019179
21:00−3sw6138754 0.0 1018247